Location: Vinland
(47.7731°N, 122.6974°W)
Time: 19:25:09
(UTC+00:00)

Vanguard 1 Rocket - Pass Details

Date: 23 March 2023
Orbit: 655 x 4220 km, 34.3° (Epoch: 05 June)

Event Time Altitude Azimuth Distance (km) Brightness Sun altitude
Exits shadow 13:36:08 - 254° (WSW) 3,985 10.0 -6.1°
Reaches altitude 10° 13:39:13 10° 237° (WSW) 3,272 9.7 -5.6°
Maximum altitude 13:40:49 11° 225° (SW) 3,022 9.6 -5.3°
Drops below altitude 10° 13:42:17 10° 212° (SSW) 2,900 9.6 -5.1°
Sets 13:47:04 0° 174° (S) 3,336 10.3 -4.3°
